Regional Weather Roundup
Issued by NWS Northern Indiana

Home | Current Version | Previous Version | Text Only | Print | Product List | Glossary Off
Versions: 1 2 3 4 5 6 7 8 9 10 11 12 13 14 15 16 17 18 19 20 21 22 23 24 25 26 27 28 29 30 31 32 33 34 35 36 37 38 39 40 41 42 43 44 45 46 47 48 49 50

000
ASUS43 KIWX 271100
RWRIWX

KIWX WEATHER ROUNDUP
NATIONAL WEATHER SERVICE NORTHERN INDIANA
600 AM EST TUE JAN 27 2015

NOTE: "FAIR" INDICATES FEW OR NO CLOUDS BELOW 12,000 FEET WITH NO
SIGNIFICANT WEATHER AND/OR OBSTRUCTIONS TO VISIBILITY.

* THESE STATIONS ARE NOT UNDER NWS QUALITY CONTROL. THEY ALSO MAY NOT
  REPORT WEATHER SUCH AS PRECIPITATION OR FOG.

INZ001>027-271200-
NORTHERN INDIANA

CITY           SKY/WX    TMP DP  RH WIND       PRES   REMARKS
GARY*          CLOUDY    27  19  74 CALM      30.01R
VALPARAISO     CLOUDY    23  18  80 NE5       30.00R WCI  17
SOUTH BEND     CLOUDY    23  13  65 NE3       30.01R
GOSHEN         CLOUDY    21  14  74 NE5       29.99R WCI  15
ANGOLA*        CLOUDY    16  10  79 CALM      29.98R
FORT WAYNE     CLOUDY    18  12  77 E7        29.99R WCI   9

$$
INZ028>050-271200-
CENTRAL INDIANA

CITY           SKY/WX    TMP DP  RH WIND       PRES   REMARKS
LAFAYETTE      CLOUDY    25  25 100 NE6       29.97R FOG     WCI  18
KOKOMO*        CLOUDY    21  16  79 E6        29.96R WCI  14
MUNCIE*        CLOUDY    20  13  74 E7        29.96R WCI  11
INDIANAPOLIS   LGT SNOW  24  24 100 NE6       29.94R FOG     WCI  17

$$
MIZ043>046-050>051-056>058-064>065-071>073-077>080-271200-
SOUTHWEST LOWER MICHIGAN

CITY           SKY/WX    TMP DP  RH WIND       PRES   REMARKS
BATTLE CREEK   CLOUDY    20  11  68 NE5       30.01R WCI  13
BENTON HARBOR  CLOUDY    21  11  65 CALM      30.02R
COLDWATER*     CLOUDY    18  12  77 CALM      30.00R
HILLSDALE*     CLOUDY    17  12  80 CALM      29.97R
HOLLAND        CLOUDY    21  12  68 NE7       30.04R WCI  12
GRAND RAPIDS   CLOUDY    18  11  74 NE6       30.04R WCI  10
KALAMAZOO      CLOUDY    19  11  70 NE6       30.01R WCI  11
STURGIS*       CLOUDY    18  10  73 NE3       29.99R
THREE RIVERS*  FAIR      20  12  70 NE6       30.01R WCI  13

$$
OHZ001>008-015>018-024>025-271200-
NORTHWEST OHIO

CITY           SKY/WX    TMP DP  RH WIND       PRES   REMARKS
DEFIANCE       CLOUDY    16  10  77 CALM      30.01R
FINDLAY        MOCLDY     6   1  80 NW3       29.98R
TOLEDO EXPRESS MOCLDY    10   8  92 CALM      30.00R
TOLEDO METCALF CLEAR     12   7  80 N5        30.02R WCI   4
LIMA           MOCLDY     8   3  80 CALM      29.97R HAZE

$$
AND FOR LAKE MICHIGAN COASTAL AND OPEN LAKE BUOY OBSERVATIONS

STATION/POSITION TEMP    WIND        PRES    VSBY  WAVE
                 AIR SEA DIR/SP/G                  HT/PER
                 (F)     (DEG/KT/KT) (MB)    (MI)  (FT/S)
CALUMET HARBOR    26      90/  2/  3   N/A
MICHIGAN CITY     23      90/  2/  3   N/A
SAINT JOSEPH      23      10/  3/  7 1017.3R

$$
&&



USA.gov is the U.S. government's official web portal to all federal, state and local government web resources and services.